Location: Recife
(8.0585°S, 34.8848°W)
Time: 22:07:06
(UTC-03:00)

Altair - Pass Details

Date: 17 April 2026
Orbit: 1501 x 1682 km, 47.2° (Epoch: 17 May)

Event Time Altitude Azimuth Distance (km) Brightness Sun altitude
Rises 09:06:43 0° 232° (SW) 4,874 9.8 52.1°
Reaches altitude 10° 09:09:58 10° 237° (WSW) 3,903 9.4 52.8°
Maximum altitude 09:19:31 50° 308° (NW) 2,059 8.7 54.9°
Drops below altitude 10° 09:29:10 10° 21° (NNE) 3,929 10.2 56.9°
Sets 09:32:29 0° 26° (NNE) 4,907 10.6 57.6°
